JE4YIZ-13 Weather Reports


Display with metric or nautical units.
time (UTC)temp
F
wind
direction
speed
MPH
gust
MPH
rain 1hr
in
rain 24hr
in
rain mn
in
humidity
%
barometer
mb
20260905222541 70 161 0.0 0.0 0.16 0.51 0.10 87 1006.3
20260905222046 70 161 0.0 0.0 0.16 0.51 0.10 87 1006.3
20260905221559 70 161 0.0 0.0 0.12 0.47 0.09 87 1006.3
20260905221021 70 161 0.0 0.0 0.08 0.43 0.09 87 1006.3
20260905220557 70 161 0.0 0.0 0.08 0.39 0.08 86 1006.3
20260905220019 70 161 0.0 0.0 0.08 0.39 0.08 86 1006.2
20260905215533 70 161 0.0 0.0 0.08 0.39 0.08 86 1006.1
20260905215018 70 161 0.0 0.0 0.04 0.35 0.07 86 1006.0
20260905214529 70 161 0.0 0.0 0.12 0.35 0.07 86 1006.0
20260905214042 70 161 0.0 1.0 0.12 0.35 0.07 86 1005.9
20260905213550 70 161 0.0 1.0 0.20 0.35 0.07 85 1005.9
20260905213017 70 161 0.0 1.0 0.24 0.35 0.07 85 1005.8
20260905212022 70 161 0.0 2.0 0.31 0.35 0.07 85 1005.6
20260905211531 70 153 1.0 2.0 0.35 0.35 0.07 84 1005.6
20260905211041 70 162 1.0 3.0 0.35 0.35 0.07 84 1005.6
20260905210526 70 153 1.0 3.0 0.31 0.31 0.06 84 1005.5
20260905210034 70 167 1.0 3.0 0.31 0.31 0.06 84 1005.6
20260905205603 70 151 0.0 1.0 0.31 0.31 0.06 83 1005.6
20260905205024 71 150 0.0 2.0 0.31 0.31 0.06 82 1005.5
20260905204536 71 150 0.0 2.0 0.24 0.24 0.05 81 1005.4
20260905204044 71 138 0.0 1.0 0.20 0.20 0.04 81 1005.4
20260905203535 72 138 0.0 1.0 0.16 0.16 0.03 80 1005.3
20260905203019 72 164 0.0 1.0 0.12 0.12 0.02 78 1005.2
20260905202528 72 164 0.0 1.0 0.08 0.08 0.02 76 1005.1
20260905202037 73 172 0.0 0.0 0.00 0.00 0.00 74 1005.0
20260905201522 73 172 0.0 2.0 0.00 0.00 0.00 74 1004.9
20260905201032 73 172 1.0 2.0 0.00 0.00 0.00 74 1005.0
20260905200539 73 172 0.0 2.0 0.00 0.00 0.00 74 1005.0
20260905200019 72 172 1.0 2.0 0.00 0.00 0.00 74 1005.1
20260905195551 72 171 1.0 3.0 0.00 0.00 0.00 75 1005.1
20260905195039 72 170 1.0 3.0 0.00 0.00 0.00 75 1005.1
20260905194521 72 172 1.0 2.0 0.00 0.00 0.00 75 1005.1
20260905194031 72 179 1.0 3.0 0.00 0.00 0.00 76 1005.1
20260905193540 72 188 1.0 3.0 0.00 0.00 0.00 76 1005.0
20260905193022 72 173 0.0 2.0 0.00 0.00 0.00 76 1005.2
20260905192027 72 178 1.0 2.0 0.00 0.00 0.00 77 1005.2
20260905191538 72 162 1.0 2.0 0.00 0.00 0.00 78 1005.3
20260905191042 71 172 0.0 1.0 0.00 0.00 0.00 79 1005.4
20260905190532 72 172 0.0 0.0 0.00 0.00 0.00 79 1005.3
20260905190042 71 172 0.0 0.0 0.00 0.00 0.00 80 1005.3
20260905185541 72 172 0.0 0.0 0.00 0.00 0.00 80 1005.3
20260905185030 72 172 0.0 0.0 0.00 0.00 0.00 80 1005.4
20260905184603 72 172 0.0 0.0 0.00 0.00 0.00 79 1005.4
20260905184023 72 172 0.0 0.0 0.00 0.00 0.00 79 1005.5
20260905183537 72 172 0.0 0.0 0.00 0.00 0.00 79 1005.5
20260905183021 72 172 0.0 0.0 0.00 0.00 0.00 78 1005.6
20260905182531 73 172 0.0 1.0 0.00 0.00 0.00 78 1005.5
20260905182041 73 172 0.0 2.0 0.00 0.00 0.00 78 1005.5
20260905181523 73 172 0.0 2.0 0.00 0.00 0.00 77 1005.5
20260905181055 73 171 1.0 3.0 0.00 0.00 0.00 77 1005.6
20260905180543 73 198 1.0 3.0 0.00 0.00 0.00 78 1005.7
20260905180022 73 184 1.0 3.0 0.00 0.00 0.00 78 1005.7
20260905175531 73 178 1.0 3.0 0.00 0.00 0.00 77 1005.7
20260905175041 73 176 1.0 2.0 0.00 0.00 0.00 77 1005.8
20260905174523 73 174 0.0 5.0 0.00 0.00 0.00 77 1005.8
20260905174034 73 172 1.0 6.0 0.00 0.00 0.00 77 1005.8
20260905173021 74 189 2.0 6.0 0.00 0.00 0.00 77 1005.9
20260905172551 74 189 2.0 5.0 0.00 0.00 0.00 77 1005.9
20260905172019 74 186 2.0 7.0 0.00 0.00 0.00 77 1006.0
20260905171545 74 195 2.0 7.0 0.00 0.00 0.00 77 1006.0
20260905171033 74 173 2.0 6.0 0.00 0.00 0.00 77 1006.0
20260905170542 74 195 3.0 5.0 0.00 0.00 0.00 77 1006.1
20260905170044 74 210 2.0 7.0 0.00 0.00 0.00 77 1006.1
20260905165533 74 210 4.0 7.0 0.00 0.00 0.00 77 1006.2
20260905165017 74 212 3.0 5.0 0.00 0.00 0.00 77 1006.2
20260905164525 74 181 2.0 6.0 0.00 0.00 0.00 77 1006.2
20260905164015 74 229 3.0 6.0 0.00 0.00 0.00 77 1006.2
20260905163544 74 201 3.0 6.0 0.00 0.00 0.00 77 1006.2
20260905163031 74 187 4.0 6.0 0.00 0.00 0.00 77 1006.2
20260905162540 74 190 2.0 5.0 0.00 0.00 0.00 77 1006.3
20260905162022 74 177 2.0 5.0 0.00 0.00 0.00 78 1006.3
20260905161531 74 219 2.0 5.0 0.00 0.00 0.00 78 1006.6
20260905161041 74 186 2.0 4.0 0.00 0.00 0.00 78 1006.6
20260905160545 74 172 2.0 4.0 0.00 0.00 0.00 78 1006.6
20260905160028 75 181 0.0 3.0 0.00 0.00 0.00 78 1006.7
20260905155538 75 183 1.0 4.0 0.00 0.00 0.00 78 1006.8
20260905155042 75 180 2.0 7.0 0.00 0.00 0.00 78 1006.7
20260905154530 75 195 2.0 7.0 0.00 0.00 0.00 78 1006.7
20260905154039 75 169 2.0 4.0 0.00 0.00 0.00 78 1006.7
20260905153523 75 181 2.0 4.0 0.00 0.00 0.00 79 1006.8
20260905153031 74 190 1.0 4.0 0.00 0.00 0.00 79 1006.7
20260905152540 75 185 1.0 3.0 0.00 0.00 0.00 79 1006.8
20260905152041 75 192 1.0 3.0 0.00 0.00 0.00 79 1006.9
20260905151529 75 192 2.0 4.0 0.00 0.00 0.00 78 1006.8
20260905151041 75 188 1.0 4.0 0.00 0.00 0.00 78 1006.8
20260905150525 75 187 2.0 4.0 0.00 0.00 0.00 78 1006.9
20260905150033 75 206 2.0 4.0 0.00 0.00 0.00 78 1006.8
20260905145537 75 250 1.0 6.0 0.00 0.00 0.00 78 1006.7
20260905145021 75 176 2.0 6.0 0.00 0.00 0.00 78 1006.7
20260905144532 75 189 2.0 4.0 0.00 0.00 0.00 78 1006.7
20260905144037 75 180 1.0 6.0 0.00 0.00 0.00 78 1006.7
20260905143521 75 197 3.0 6.0 0.00 0.00 0.00 78 1006.8
20260905143029 75 187 2.0 6.0 0.00 0.00 0.00 78 1006.7
20260905142538 75 199 2.0 4.0 0.00 0.00 0.00 78 1006.8
20260905142020 75 177 1.0 2.0 0.00 0.00 0.00 78 1006.9
20260905141529 75 187 1.0 2.0 0.00 0.00 0.00 78 1007.0
20260905141039 75 174 1.0 2.0 0.00 0.00 0.00 79 1007.0
20260905140521 75 167 1.0 2.0 0.00 0.00 0.00 79 1007.1
20260905140023 75 167 1.0 1.0 0.00 0.00 0.00 78 1007.1
20260905135534 76 167 0.0 1.0 0.00 0.00 0.00 78 1007.2
20260905135019 76 166 0.0 1.0 0.00 0.00 0.00 78 1007.1
20260905134527 76 167 0.0 3.0 0.00 0.00 0.00 78 1007.2
20260905134037 76 167 1.0 3.0 0.00 0.00 0.00 78 1007.2
20260905133522 76 168 0.0 2.0 0.00 0.00 0.00 78 1007.3
20260905133049 76 168 1.0 2.0 0.00 0.00 0.00 78 1007.2
20260905132539 76 168 1.0 2.0 0.00 0.00 0.00 78 1007.2
20260905132046 76 168 1.0 2.0 0.00 0.00 0.00 78 1007.3
20260905131516 76 167 1.0 2.0 0.00 0.00 0.00 78 1007.3
20260905131026 76 167 0.0 2.0 0.00 0.00 0.00 78 1007.3
20260905130536 76 168 1.0 2.0 0.00 0.00 0.00 78 1007.3
20260905130017 76 176 0.0 2.0 0.00 0.00 0.00 78 1007.3
20260905125526 76 177 1.0 2.0 0.00 0.00 0.00 78 1007.2
20260905125029 76 179 0.0 2.0 0.00 0.00 0.00 78 1007.1
20260905124536 76 177 1.0 2.0 0.00 0.00 0.00 78 1007.2
20260905124017 76 178 1.0 2.0 0.00 0.00 0.00 78 1007.3
20260905123529 76 181 0.0 2.0 0.00 0.00 0.00 78 1007.2
20260905122528 76 181 0.0 2.0 0.00 0.00 0.00 78 1007.2
20260905122038 76 181 0.0 2.0 0.00 0.00 0.00 77 1007.3
20260905121519 76 182 1.0 3.0 0.00 0.00 0.00 77 1007.3
20260905121019 77 194 1.0 3.0 0.00 0.00 0.00 77 1007.3
20260905120528 77 181 1.0 3.0 0.00 0.00 0.00 77 1007.2
20260905120030 77 177 0.0 3.0 0.00 0.00 0.00 77 1007.2
20260905115559 77 178 1.0 3.0 0.00 0.00 0.00 76 1007.2
20260905115022 77 178 2.0 3.0 0.00 0.00 0.00 76 1007.2
20260905114532 77 197 2.0 4.0 0.00 0.00 0.00 76 1007.1
20260905114040 77 176 0.0 3.0 0.00 0.00 0.00 76 1006.9
20260905113524 77 181 1.0 6.0 0.00 0.00 0.00 75 1007.0
20260905113031 78 195 3.0 6.0 0.00 0.00 0.00 75 1007.0
20260905112538 78 182 2.0 6.0 0.00 0.00 0.00 75 1006.9
20260905112041 78 177 2.0 5.0 0.00 0.00 0.00 75 1006.8
20260905111543 78 181 2.0 5.0 0.00 0.00 0.00 75 1006.8
20260905111033 78 182 3.0 6.0 0.00 0.00 0.00 75 1006.8
20260905110543 78 198 2.0 6.0 0.00 0.00 0.00 75 1006.8
20260905110015 78 198 2.0 4.0 0.00 0.00 0.00 75 1006.8
20260905105518 78 191 2.0 4.0 0.00 0.00 0.00 75 1006.7
20260905105028 78 198 2.0 4.0 0.00 0.00 0.00 75 1006.8
20260905104532 78 191 2.0 4.0 0.00 0.00 0.00 75 1006.7
20260905104041 78 165 1.0 4.0 0.00 0.00 0.00 75 1006.7
20260905103525 79 166 1.0 3.0 0.00 0.00 0.00 75 1006.7
20260905103054 79 165 1.0 3.0 0.00 0.00 0.00 75 1006.7
20260905102515 79 184 1.0 3.0 0.00 0.00 0.00 74 1006.5
20260905102025 79 170 0.0 2.0 0.00 0.00 0.00 74 1006.5
20260905101534 79 169 1.0 2.0 0.00 0.00 0.00 74 1006.4
20260905101016 79 159 1.0 1.0 0.00 0.00 0.00 75 1006.4
20260905100543 79 158 1.0 1.0 0.00 0.00 0.00 75 1006.4
20260905100024 79 158 0.0 1.0 0.00 0.00 0.00 74 1006.4
20260905095555 80 158 0.0 2.0 0.00 0.00 0.00 74 1006.5
20260905095016 80 158 1.0 2.0 0.00 0.00 0.00 74 1006.3
20260905094525 80 160 1.0 2.0 0.00 0.00 0.00 73 1006.3
20260905094035 80 175 0.0 1.0 0.00 0.00 0.00 73 1006.3
20260905093540 80 175 0.0 1.0 0.00 0.00 0.00 73 1006.3
20260905093018 80 175 0.0 1.0 0.00 0.00 0.00 73 1006.4
20260905092530 80 176 0.0 1.0 0.00 0.00 0.00 72 1006.3
20260905092040 81 176 1.0 1.0 0.00 0.00 0.00 72 1006.3
20260905091523 81 176 0.0 1.0 0.00 0.00 0.00 71 1006.3
20260905091035 81 176 0.0 1.0 0.00 0.00 0.00 71 1006.3
20260905090519 81 176 0.0 3.0 0.00 0.00 0.00 70 1006.3
20260905090026 82 176 1.0 3.0 0.00 0.04 0.00 69 1006.4
20260905085534 82 207 2.0 3.0 0.00 0.04 0.00 69 1006.3
20260905085040 82 169 0.0 3.0 0.00 0.04 0.00 69 1006.4
20260905084524 82 184 2.0 4.0 0.00 0.04 0.00 68 1006.4
20260905084033 83 184 2.0 3.0 0.00 0.04 0.00 67 1006.3
20260905083049 83 193 1.0 4.0 0.00 0.04 0.00 66 1006.4
20260905082538 84 160 1.0 3.0 0.00 0.04 0.00 66 1006.4
20260905082021 84 161 1.0 3.0 0.00 0.04 0.00 65 1006.3
20260905081541 84 162 0.0 2.0 0.00 0.04 0.00 65 1006.3
20260905081025 84 186 1.0 3.0 0.00 0.04 0.00 65 1006.3
20260905080537 84 171 1.0 5.0 0.00 0.04 0.00 65 1006.3
20260905080017 84 189 1.0 5.0 0.00 0.12 0.00 65 1006.3
20260905075526 84 166 1.0 2.0 0.00 0.12 0.00 65 1006.3
20260905075036 84 174 0.0 2.0 0.00 0.12 0.00 65 1006.2
20260905074519 84 174 0.0 2.0 0.00 0.12 0.00 66 1006.1
20260905074019 84 177 0.0 3.0 0.00 0.12 0.00 66 1006.2
20260905073530 84 200 2.0 3.0 0.00 0.12 0.00 64 1006.2
20260905073033 84 172 1.0 4.0 0.00 0.12 0.00 64 1006.1
20260905072542 84 176 1.0 4.0 0.00 0.12 0.00 64 1006.0
20260905072024 84 188 2.0 3.0 0.00 0.12 0.00 63 1006.1
20260905071535 85 185 1.0 3.0 0.00 0.12 0.00 62 1006.1
20260905071018 85 153 1.0 2.0 0.00 0.12 0.00 60 1006.0
20260905070528 85 152 0.0 3.0 0.00 0.12 0.00 60 1005.9
20260905070016 85 172 1.0 3.0 0.00 0.24 0.00 61 1005.9
20260905065526 85 132 1.0 4.0 0.00 0.24 0.00 61 1005.9
20260905065033 84 141 1.0 5.0 0.00 0.24 0.00 61 1005.9
20260905064558 85 71 2.0 5.0 0.00 0.24 0.00 61 1006.0
20260905064019 85 91 3.0 6.0 0.00 0.24 0.00 61 1005.9
20260905063529 85 70 2.0 6.0 0.00 0.24 0.00 60 1006.0
20260905063036 85 133 1.0 6.0 0.00 0.24 0.00 61 1006.0
20260905062038 84 49 2.0 7.0 0.00 0.24 0.00 59 1006.0
20260905061520 84 75 3.0 8.0 0.00 0.24 0.00 60 1006.2
20260905061049 85 38 4.0 8.0 0.00 0.24 0.00 59 1006.2
20260905060539 85 69 4.0 8.0 0.00 0.24 0.00 59 1006.1
20260905060019 85 116 2.0 8.0 0.00 0.59 0.00 59 1006.2
20260905055527 85 68 4.0 8.0 0.00 0.59 0.00 58 1006.3
20260905055036 85 49 4.0 7.0 0.00 0.59 0.00 58 1006.3
20260905054539 85 75 4.0 7.0 0.00 0.59 0.00 59 1006.4
20260905054028 85 309 4.0 9.0 0.00 0.59 0.00 58 1006.4
20260905053539 85 65 4.0 9.0 0.00 0.59 0.00 58 1006.5
20260905053015 85 69 3.0 8.0 0.00 0.59 0.00 57 1006.4
20260905052525 85 356 3.0 8.0 0.00 0.59 0.00 58 1006.5
20260905052037 85 63 4.0 7.0 0.00 0.59 0.00 58 1006.5
20260905051526 84 93 3.0 9.0 0.00 0.59 0.00 59 1006.5
20260905051035 84 45 4.0 9.0 0.00 0.59 0.00 58 1006.6
20260905050520 84 18 5.0 8.0 0.00 0.59 0.00 59 1006.6
20260905050018 84 44 4.0 8.0 0.00 0.87 0.00 59 1006.7
20260905045528 84 72 4.0 7.0 0.00 0.87 0.00 59 1006.8
20260905045024 84 19 3.0 7.0 0.00 0.87 0.00 60 1006.8
20260905044532 85 90 2.0 7.0 0.00 0.87 0.00 60 1006.9
20260905044042 84 72 4.0 7.0 0.00 0.87 0.00 59 1006.9
20260905043546 85 57 3.0 6.0 0.00 0.87 0.00 59 1006.8
20260905043034 85 193 2.0 8.0 0.00 0.87 0.00 59 1006.9
20260905042518 85 101 3.0 8.0 0.00 0.87 0.00 60 1006.9
20260905042028 85 80 3.0 7.0 0.00 0.87 0.00 59 1006.9
20260905041538 85 127 3.0 12.0 0.00 0.87 0.00 59 1006.9
20260905041025 85 110 4.0 12.0 0.00 0.87 0.00 58 1007.0
20260905040535 85 61 6.0 11.0 0.00 0.87 0.00 58 1007.0
20260905040041 85 53 3.0 11.0 0.00 1.30 0.00 59 1007.0
20260905035525 85 37 6.0 11.0 0.00 1.30 0.00 58 1007.1
20260905035034 85 273 6.0 11.0 0.00 1.30 0.00 60 1007.3
20260905034517 85 90 5.0 11.0 0.00 1.30 0.00 60 1007.3
20260905034019 85 126 7.0 12.0 0.00 1.30 0.00 59 1007.3
20260905033525 85 111 6.0 14.0 0.00 1.30 0.00 60 1007.2
20260905033035 85 32 7.0 14.0 0.00 1.30 0.00 59 1007.3
20260905032515 85 84 5.0 11.0 0.00 1.30 0.00 60 1007.3
20260905032024 85 50 6.0 11.0 0.00 1.30 0.00 59 1007.4
20260905031534 84 8 5.0 12.0 0.00 1.30 0.00 60 1007.5
20260905031042 84 98 5.0 12.0 0.00 1.30 0.00 60 1007.6
20260905030526 84 35 5.0 10.0 0.00 1.30 0.00 61 1007.7
20260905030030 84 41 5.0 10.0 0.00 1.97 0.00 62 1007.7
20260905025606 83 289 5.0 11.0 0.00 1.97 0.00 61 1007.7
20260905025049 83 63 6.0 11.0 0.00 1.97 0.00 62 1007.8
20260905024539 83 49 5.0 11.0 0.00 1.97 0.00 63 1007.8
20260905023536 84 72 4.0 10.0 0.00 1.97 0.00 62 1007.7
20260905023016 84 59 4.0 9.0 0.00 1.97 0.00 62 1007.6
20260905022547 84 73 4.0 10.0 0.00 1.97 0.00 63 1007.7
20260905022030 83 103 5.0 10.0 0.00 1.97 0.00 63 1007.7
20260905021539 83 36 5.0 8.0 0.00 1.97 0.00 63 1007.6
20260905021023 83 61 5.0 8.0 0.00 1.97 0.00 63 1007.7
20260905020555 83 103 4.0 8.0 0.00 1.97 0.00 63 1007.8
20260905020037 83 174 2.0 7.0 0.00 2.60 0.00 64 1007.8
20260905015545 83 69 4.0 7.0 0.00 2.60 0.00 63 1007.9
20260905015026 83 112 2.0 5.0 0.00 2.60 0.00 63 1008.0
20260905014533 83 83 2.0 7.0 0.00 2.60 0.00 64 1008.0
20260905014038 83 278 3.0 7.0 0.00 2.60 0.00 63 1008.1
20260905013522 82 153 1.0 5.0 0.00 2.60 0.00 65 1008.1
20260905013029 82 171 1.0 6.0 0.00 2.60 0.00 65 1008.2
20260905012539 82 293 2.0 7.0 0.00 2.60 0.00 65 1008.2
20260905012021 82 213 3.0 5.0 0.00 2.60 0.00 65 1008.1
20260905011530 81 226 2.0 8.0 0.00 2.60 0.00 66 1008.2
20260905011040 81 172 3.0 8.0 0.00 2.60 0.00 66 1008.3
20260905010523 81 175 1.0 6.0 0.00 2.60 0.00 66 1008.4
20260905010027 80 180 1.0 7.0 0.00 3.15 0.00 67 1008.3
20260905005536 80 195 1.0 7.0 0.00 3.15 0.00 68 1008.4
20260905005018 80 218 2.0 5.0 0.00 3.15 0.00 68 1008.5
20260905004527 80 185 1.0 4.0 0.00 3.15 0.00 69 1008.4
20260905004037 79 176 1.0 4.0 0.00 3.15 0.00 70 1008.5
20260905003520 79 199 1.0 4.0 0.00 3.15 0.00 71 1008.5
20260905003026 79 176 0.0 4.0 0.00 3.15 0.00 72 1008.4
20260905002516 79 176 0.0 3.0 0.00 3.15 0.00 73 1008.4
20260905002042 78 186 1.0 4.0 0.00 3.15 0.00 75 1008.4
20260905001524 78 199 2.0 4.0 0.00 3.15 0.00 75 1008.4
20260905001032 77 183 0.0 2.0 0.00 3.15 0.00 77 1008.4
20260905000604 77 186 2.0 3.0 0.00 3.15 0.00 76 1008.4
20260905000046 77 165 0.0 3.0 0.00 3.94 0.00 78 1008.3
20260904235534 77 163 0.0 3.0 0.00 3.94 0.00 79 1008.3
20260904235043 76 163 1.0 6.0 0.00 3.94 0.00 78 1008.2
20260904234520 76 194 2.0 6.0 0.00 3.94 0.00 77 1008.1
20260904234035 76 184 2.0 6.0 0.00 3.94 0.00 79 1008.0
20260904233519 76 181 3.0 5.0 0.00 3.94 0.00 79 1008.2
20260904233025 75 203 1.0 4.0 0.00 3.94 0.00 80 1008.2
20260904232545 75 173 1.0 2.0 0.00 3.94 0.00 80 1008.2
20260904232023 75 169 0.0 4.0 0.00 3.94 0.00 81 1008.0
20260904231529 75 185 0.0 5.0 0.00 3.94 0.00 81 1008.1
20260904231039 75 222 2.0 5.0 0.00 3.94 0.00 81 1008.1
20260904230539 74 176 1.0 3.0 0.00 3.94 0.00 82 1008.1
20260904230025 74 203 1.0 3.0 0.00 4.13 0.00 82 1008.2
20260904225534 74 190 1.0 3.0 0.00 4.13 0.00 83 1008.2
20260904225138 74 181 0.0 2.0 0.00 4.13 0.00 84 1008.1
20260904224603 73 175 0.0 3.0 0.00 4.13 0.00 85 1008.1
20260904224022 73 194 2.0 4.0 0.00 4.13 0.00 85 1008.0
20260904223555 72 190 1.0 5.0 0.00 4.13 0.00 86 1007.9
20260904223038 72 168 1.0 5.0 0.00 4.13 0.00 86 1007.9